W4DHW-4 Weather Reports


time (UTC)temp
C
wind
direction
speed
KPH
gust
KPH
rain 1hr
cm
rain 24hr
cm
rain mn
cm
humidity
%
barometer
mb
20260504080249 7 267 0.0 0.0 0.00 0.00 0.00 80 1016.8
20260504070217 7 224 1.6 1.6 0.00 0.00 0.00 79 1016.8
20260504060137 7 274 0.0 0.0 0.00 0.00 0.00 76 1016.9
20260504050606 8 282 0.0 0.0 0.00 0.00 0.00 74 1017.1
20260504045559 8 282 1.6 1.6 0.00 0.00 0.00 74 1017.0
20260504045054 8 299 1.6 3.2 0.00 0.00 0.00 74 1016.9
20260504044553 8 305 3.2 3.2 0.00 0.00 0.00 74 1017.1
20260504044049 8 285 0.0 0.0 0.00 0.00 0.00 73 1016.9
20260504043547 8 290 1.6 1.6 0.00 0.00 0.00 73 1016.9
20260504043044 8 284 1.6 1.6 0.00 0.00 0.00 74 1016.7
20260504042540 8 279 0.0 0.0 0.00 0.00 0.00 72 1016.8
20260504042037 8 302 1.6 1.6 0.00 0.00 0.00 72 1016.7
20260504041533 8 286 0.0 1.6 0.00 0.00 0.00 72 1016.8
20260504041029 8 272 0.0 0.0 0.00 0.00 0.00 73 1016.7
20260504040527 8 270 1.6 1.6 0.00 0.00 0.00 73 1016.7
20260504040024 8 286 0.0 0.0 0.00 0.00 0.00 72 1016.7
20260504035521 8 275 0.0 0.0 0.00 0.00 0.00 73 1016.6
20260504035017 8 277 0.0 0.0 0.00 0.00 0.00 73 1016.8
20260504034515 8 281 1.6 1.6 0.00 0.00 0.00 72 1016.8
20260504034012 8 286 0.0 1.6 0.00 0.00 0.00 69 1016.8
20260504033509 8 276 1.6 1.6 0.00 0.00 0.00 69 1016.8
20260504033007 8 290 1.6 1.6 0.00 0.00 0.00 70 1016.7
20260504032503 8 267 0.0 0.0 0.00 0.00 0.00 69 1016.5
20260504032000 8 256 1.6 1.6 0.00 0.00 0.00 68 1016.7
20260504031456 8 289 0.0 0.0 0.00 0.00 0.00 68 1016.6
20260504030953 8 263 0.0 0.0 0.00 0.00 0.00 67 1016.6
20260504030451 8 291 1.6 1.6 0.00 0.00 0.00 64 1016.8
20260504025946 8 278 0.0 0.0 0.00 0.00 0.00 66 1017.0
20260504025443 8 283 1.6 1.6 0.00 0.00 0.00 66 1016.7
20260504024941 8 282 0.0 1.6 0.00 0.00 0.00 67 1016.5
20260504024437 9 294 1.6 1.6 0.00 0.00 0.00 66 1016.8
20260504023934 9 308 1.6 1.6 0.00 0.00 0.00 61 1016.7
20260504023431 9 280 0.0 0.0 0.00 0.00 0.00 60 1016.8
20260504022926 9 277 0.0 0.0 0.00 0.00 0.00 58 1016.6
20260504022423 8 298 3.2 3.2 0.00 0.00 0.00 60 1016.7
20260504021920 8 276 0.0 0.0 0.00 0.00 0.00 65 1016.6
20260504021417 8 294 1.6 1.6 0.00 0.00 0.00 64 1016.6
20260504020914 8 286 1.6 1.6 0.00 0.00 0.00 65 1016.4
20260504020411 8 304 0.0 0.0 0.00 0.00 0.00 61 1016.6
20260504015908 8 289 0.0 1.6 0.00 0.00 0.00 60 1016.6
20260504015403 8 282 3.2 3.2 0.00 0.00 0.00 59 1016.5
20260504014859 9 271 0.0 1.6 0.00 0.00 0.00 62 1016.4
20260504014355 8 289 0.0 1.6 0.00 0.00 0.00 64 1016.2
20260504013853 9 279 0.0 0.0 0.00 0.00 0.00 63 1016.3
20260504013351 9 289 1.6 1.6 0.00 0.00 0.00 62 1016.2
20260504012847 10 305 1.6 1.6 0.00 0.00 0.00 59 1016.2
20260504012345 10 286 1.6 1.6 0.00 0.00 0.00 58 1016.1
20260504011842 10 278 0.0 0.0 0.00 0.00 0.00 56 1016.1
20260504011339 10 271 0.0 0.0 0.00 0.00 0.00 56 1015.6
20260504010835 10 291 0.0 1.6 0.00 0.00 0.00 55 1015.6
20260504010330 10 276 0.0 0.0 0.00 0.00 0.00 54 1015.8
20260504005827 11 270 0.0 0.0 0.00 0.00 0.00 53 1015.9
20260504005324 11 281 0.0 0.0 0.00 0.00 0.00 50 1015.9
20260504004822 11 294 0.0 1.6 0.00 0.00 0.00 51 1015.6
20260504004319 11 290 0.0 0.0 0.00 0.00 0.00 49 1015.6
20260504003815 12 251 0.0 0.0 0.00 0.00 0.00 47 1015.5
20260504003313 12 302 0.0 1.6 0.00 0.00 0.00 45 1015.5
20260504002809 12 292 0.0 0.0 0.00 0.00 0.00 41 1015.4
20260504002306 13 276 0.0 0.0 0.00 0.00 0.00 40 1015.6
20260504001804 13 274 0.0 0.0 0.00 0.00 0.00 39 1015.5
20260504001301 14 273 0.0 0.0 0.00 0.00 0.00 34 1015.3
20260504000758 15 270 0.0 0.0 0.00 0.00 0.00 34 1015.3
20260504000254 15 275 0.0 0.0 0.00 0.00 0.00 31 1015.5
20260503235752 16 269 3.2 3.2 0.00 0.00 0.00 29 1015.5
20260503235249 16 247 1.6 3.2 0.00 0.00 0.00 28 1015.6
20260503234747 16 272 0.0 0.0 0.00 0.00 0.00 30 1015.3
20260503234245 16 259 1.6 8.0 0.00 0.00 0.00 28 1015.3
20260503233742 16 259 1.6 3.2 0.00 0.00 0.00 29 1015.5
20260503233238 17 271 0.0 1.6 0.00 0.00 0.00 29 1015.4
20260503232735 17 249 3.2 4.8 0.00 0.00 0.00 28 1015.5
20260503232232 17 278 0.0 0.0 0.00 0.00 0.00 29 1015.3
20260503231730 17 300 1.6 3.2 0.00 0.00 0.00 26 1015.4
20260503231226 17 262 1.6 3.2 0.00 0.00 0.00 26 1015.4
20260503230722 17 250 6.4 9.7 0.00 0.00 0.00 27 1015.2
20260503230220 17 228 4.8 4.8 0.00 0.00 0.00 27 1015.3
20260503225717 17 268 4.8 4.8 0.00 0.00 0.00 26 1015.3
20260503225217 17 245 3.2 3.2 0.00 0.00 0.00 27 1015.3
20260503224715 17 253 4.8 8.0 0.00 0.00 0.00 27 1015.1
20260503224213 17 248 3.2 9.7 0.00 0.00 0.00 26 1015.3
20260503223710 17 286 4.8 9.7 0.00 0.00 0.00 26 1015.2
20260503223207 17 247 9.7 11.3 0.00 0.00 0.00 26 1015.3
20260503222704 17 279 0.0 1.6 0.00 0.00 0.00 25 1015.3
20260503222201 17 276 3.2 4.8 0.00 0.00 0.00 26 1015.2
20260503221700 17 243 9.7 12.9 0.00 0.00 0.00 28 1015.3
20260503221156 17 271 0.0 1.6 0.00 0.00 0.00 25 1015.4
20260503220653 17 282 1.6 3.2 0.00 0.00 0.00 26 1015.3
20260503220150 17 279 0.0 1.6 0.00 0.00 0.00 25 1015.3
20260503215647 17 279 1.6 3.2 0.00 0.00 0.00 27 1015.5
20260503215143 17 262 1.6 3.2 0.00 0.00 0.00 27 1015.4
20260503214643 17 279 8.0 11.3 0.00 0.00 0.00 26 1015.3
20260503214138 17 269 3.2 8.0 0.00 0.00 0.00 26 1015.3
20260503213638 17 230 8.0 9.7 0.00 0.00 0.00 26 1015.3
20260503213134 17 278 4.8 8.0 0.00 0.00 0.00 25 1015.2
20260503212631 17 305 4.8 9.7 0.00 0.00 0.00 26 1015.6
20260503212129 17 276 9.7 16.1 0.00 0.00 0.00 26 1015.3
20260503211626 17 269 3.2 4.8 0.00 0.00 0.00 27 1015.6
20260503211121 17 359 4.8 8.0 0.00 0.00 0.00 27 1015.5
20260503210618 16 276 4.8 9.7 0.00 0.00 0.00 28 1015.5
20260503210115 17 235 14.5 17.7 0.00 0.00 0.00 27 1015.8
20260503205611 16 289 8.0 12.9 0.00 0.00 0.00 26 1015.8
20260503205107 16 237 3.2 3.2 0.00 0.00 0.00 27 1015.6
20260503204604 16 276 4.8 4.8 0.00 0.00 0.00 27 1015.8
20260503204101 17 274 3.2 8.0 0.00 0.00 0.00 28 1015.9
20260503203558 16 50 3.2 3.2 0.00 0.00 0.00 27 1015.9
20260503203055 16 276 4.8 4.8 0.00 0.00 0.00 27 1016.0
20260503202553 16 262 17.7 22.5 0.00 0.00 0.00 27 1016.0
20260503202051 16 287 8.0 12.9 0.00 0.00 0.00 29 1015.9
20260503201549 16 265 6.4 9.7 0.00 0.00 0.00 28 1016.2
20260503201046 16 273 1.6 3.2 0.00 0.00 0.00 29 1016.2
20260503200541 16 236 17.7 17.7 0.00 0.00 0.00 30 1016.1
20260503200039 16 319 8.0 11.3 0.00 0.00 0.00 30 1016.2
20260503195536 16 268 12.9 17.7 0.00 0.00 0.00 29 1016.3
20260503195033 16 298 11.3 12.9 0.00 0.00 0.00 29 1016.5
20260503194530 16 229 9.7 12.9 0.00 0.00 0.00 31 1016.3
20260503194029 16 217 1.6 3.2 0.00 0.00 0.00 30 1016.5
20260503193527 16 243 12.9 17.7 0.00 0.00 0.00 31 1016.3
20260503193021 16 278 4.8 9.7 0.00 0.00 0.00 30 1016.7
20260503192518 15 298 1.6 1.6 0.00 0.00 0.00 31 1016.8
20260503192014 15 186 11.3 14.5 0.00 0.00 0.00 30 1016.8
20260503191511 16 294 8.0 12.9 0.00 0.00 0.00 30 1016.7
20260503191008 15 310 8.0 12.9 0.00 0.00 0.00 33 1016.7
20260503190505 16 338 4.8 8.0 0.00 0.00 0.00 32 1016.8
20260503190002 15 283 6.4 9.7 0.00 0.00 0.00 31 1017.0
20260503185458 15 272 1.6 8.0 0.00 0.00 0.00 29 1017.2
20260503184958 15 291 3.2 3.2 0.00 0.00 0.00 30 1017.3
20260503184454 15 293 6.4 14.5 0.00 0.00 0.00 31 1017.5
20260503183951 14 252 8.0 11.3 0.00 0.00 0.00 32 1017.5
20260503183448 15 265 6.4 11.3 0.00 0.00 0.00 31 1017.3
20260503182944 15 259 11.3 14.5 0.00 0.00 0.00 33 1017.8
20260503182443 15 168 6.4 9.7 0.00 0.00 0.00 32 1017.7
20260503181940 14 234 1.6 3.2 0.00 0.00 0.00 32 1017.6
20260503181437 15 317 4.8 4.8 0.00 0.00 0.00 32 1017.9
20260503180933 14 265 3.2 4.8 0.00 0.00 0.00 34 1017.7
20260503180432 14 338 4.8 4.8 0.00 0.00 0.00 33 1017.9
20260503175928 14 283 4.8 8.0 0.00 0.00 0.00 33 1018.0
20260503175426 13 264 8.0 11.3 0.00 0.00 0.00 34 1018.1
20260503174922 14 282 14.5 20.9 0.00 0.00 0.00 35 1017.9
20260503174420 13 313 3.2 8.0 0.00 0.00 0.00 35 1018.2
20260503173920 13 253 8.0 11.3 0.00 0.00 0.00 38 1018.2
20260503173417 13 102 3.2 4.8 0.00 0.00 0.00 36 1017.9
20260503172914 13 284 1.6 3.2 0.00 0.00 0.00 38 1018.3
20260503172411 13 134 1.6 8.0 0.00 0.00 0.00 38 1018.3
20260503171907 13 241 1.6 3.2 0.00 0.00 0.00 36 1018.3
20260503171404 12 345 1.6 4.8 0.00 0.00 0.00 40 1018.4
20260503170901 12 183 9.7 12.9 0.00 0.00 0.00 38 1018.5
20260503170358 12 8 3.2 4.8 0.00 0.00 0.00 39 1018.3
20260503150750 10 54 3.2 8.0 0.00 0.00 0.00 44 1020.0
20260503150246 10 8 4.8 8.0 0.00 0.00 0.00 43 1020.0
20260503140210 8 5 9.7 11.3 0.00 0.00 0.00 45 1020.5
20260503131140 8 299 9.7 12.9 0.00 0.00 0.00 50 1019.9
20260503130637 7 298 4.8 8.0 0.00 0.00 0.00 52 1019.9
20260503130135 8 272 1.6 4.8 0.00 0.00 0.00 50 1020.0
20260503110527 2 296 1.6 1.6 0.00 0.00 0.00 82 1018.8
20260503090414 2 283 1.6 1.6 0.00 0.00 0.00 80 1017.0
20260503081341 1 283 0.0 0.0 0.00 0.00 0.00 92 1016.8
20260503080837 1 290 0.0 1.6 0.00 0.00 0.00 92 1016.9